Location: Piolenc
(44.1794°N, 4.7641°E)
Time: 03:26:47
(UTC+00:00)

STARLINK-2055 - Pass Details

Date: 27 January 2021
Orbit: 379 x 380 km, 53.1° (Epoch: 27 February)

Event Time Altitude Azimuth Distance (km) Brightness Sun altitude
Exits shadow 05:44:41 11° 220° (SW) 1,353 5.3 -14.3°
Maximum altitude 05:47:38 57° 141° (SE) 462 3.5 -13.8°
Drops below altitude 10° 05:50:47 10° 62° (ENE) 1,427 6.5 -13.2°
Sets 05:52:52 0° 58° (ENE) 2,289 7.5 -12.8°
